Погода Аскино

Погода Аскино : погода сейчас, прогноз погоды и архив. Всё, что Вы хотите узнать о погоде Аскино!

Поиск расширенной информации на нашем сайте:

Другие новости

Новости СМИ2

Главная страница сайта

Новости сайта

02.10.2013

Напоминаем, что на нашем новом сайте вы можете получить высокодетализированные прогнозы погоды по пунктам России, СНГ и мира (включающие важные для авиации метеовеличины, такие как направление и скорость ветра, видимость, явления погоды, количество и форма облачности, нижняя и верхняя граница облачности), а также ознакомиться с разнообразными материалами по авиационной метеорологии и подборкой полезных ссылок на эту тему.

Сайт Метеоцентр.Азия посвящён разработке технологий оптимизации авиаметеорологического обслуживания, включая проектирование и перспективное создание нескольких автоматизированных авиаметеорологических систем:
- система выпуска высокодетальных прогностических карт явлений погоды для нижнего воздушного пространства по России и ближнему зарубежью;
- система верификации прогнозов TAF (выпускаемых синоптиками официальных АМСГ РФ и ближнего зарубежья) и AUTOTAF (выпускаемых сайтом Метеоцентр.Азия) - выявление ошибок, онлайн-сопоставление с фактической погодой METAR, автоматическое внесение коррективов в прогнозы при резком отклонении фактической погоды от прогноза, подсчёт оправдываемости прогнозов по элементам и в целом;
- система обработки, анализа и отображения авиаметеорологической информации для применения провайдерами метеорологической информации.


Погода Аскино - сегодня

Время (UTC), дата Ветер
(°,м/с) 
Видим.   Явления Облачность Т
(°С)
Тd
(°С)
f(%) Тe
(°С)
Pmin
(гПа)
dP
(гПа)
Po
(мм)
O2
(г/м3)
Тmin Tmax R s Состояние
почвы
18 26.05.17 200 (Ю) н/о    9/3 1500 м верхняя 
[Cu med, cong|Cs]
+16.2 +5.3 48 +17  1011  -0.3  740  281           
21 26.05.17 220 (ЮЗ) н/о    9/0 средняя, верхняя 
[Ac trans|Cs]
+13.2 +5.5 60 +14  1010.2  -1  739  283           
00 27.05.17 210 (ЮЗ) 20000 м    9/6 1000 м средняя, верхняя 
[Cu med, cong|Ac trans|Ci sp]
+13.8 +6.4 61 +14  1009.3  -0.8  739  282           
03 27.05.17 180 (Ю) 20000 м    10/4 1000 м средняя 
[Cu med, cong|Ac und]
+15.3 +9.4 68 +17  1008.2  -0.9  738  280  +11.4        сухая 
06 27.05.17 180 (Ю) 20000 м    10/4 1000 м средняя 
[Cu med, cong|Ac und]
+16.8 +8.5 58 +17  1007.3  -0.8  737  278           
09 27.05.17 230 (ЮЗ) 20000 м    10/4 1000 м средняя 
[Cu med, cong|Ac und]
+18.9 +9.3 54 +21  1005.3  -1.8  736  276           
12 27.05.17 240 (ЮЗ) 20000 м    9/4 1000 м средняя, верхняя 
[Cu med, cong|Ac lent|Cs]
+18.9 +9.7 55 +20  1003.1  -2.1  734  275           
18 27.05.17 260 (З) н/о  в посл. час ливневой дождь  10/8 600 м кучево-дожд., средняя 
[Cb calv|Ac und]
+13.5 +10.3 81 +16  1001.8  733  280           
21 27.05.17 230 (ЮЗ) н/о    10/5 600 м средняя 
[Cu med, cong|Ac und]
+11.7 +10.1 90 +14  1000.5  -1.5  732  281           
00 28.05.17 190 (Ю) 4000 м  слаб. ливневой дождь  10/8 600 м кучево-дожд., средняя 
[Cb calv|Ac und]
+11.7 +10.5 92 +13  999  -1.5  731  280           
03 28.05.17 010 (С) 5{14}  20000 м  {ливн. осадки}  10/8 600 м средняя 
[Cu med, cong|Ac und]
+6.4 +4.6 88 +5  1002.6  3.1  733  288  +6.4      мокрая 
09 28.05.17 320 (СЗ) 6{12}  20000 м    10/8 1000 м средняя 
[Cu med, cong|Ac und]
+6.5 +1.1 68 +4  1007.3  1.7  737  290           
12 28.05.17 310 (СЗ) 20000 м    9/8 1000 м средняя 
[Cu med, cong|Ac lent]
+6.7 -0.5 60 +5  1008.5  1.1  738  290           
18 28.05.17 010 (С) н/о    10/0 средняя 
[Ac und]
+2.4 -1.9 73 +2  1010.7  739  295           
21 28.05.17 340 (С) н/о    4/0 средняя, верхняя 
[Ac lent|Ci sp]
-2.4 -3.8 90 -4  1011.6  0.4  739  301           
00 29.05.17 320 (СЗ) 20000 м    9/3 1000 м средняя, верхняя 
[Cu med, cong|Ac trans|Ci sp]
-1.3 -2.9 89 -1  1012.1  0.5  740  300           
03 29.05.17 350 (С) 20000 м    8/0 средняя, верхняя 
[Ac lent|Ci]
+1.6 -2.2 76 -1  1012.1  0.3  740  297  -2.4        мокрая 
06 29.05.17 320 (СЗ) 20000 м    9/9 1500 м 
[Cu med, cong]
+5.6 -8.1 37 +4  1012.1  0.3  740  293           
09 29.05.17 330 (СЗ) 6{10}  20000 м    9/9 1500 м 
[Cu med, cong]
+7.7 -7.4 33 +6  1011.4  -0.5  740  291           
12 29.05.17 350 (С) 20000 м    8/8 1500 м 
[Cu med, cong]
+8.1 -6.5 35 +7  1011  -0.3  740  290           
18 29.05.17 190 (Ю) н/о    4/1 1500 м верхняя 
[Cu hum|Ci fib]
+3.4 -3.4 61 +3  1011.6  0.1  740  295           
21 29.05.17 170 (Ю) н/о    6/0 средняя, верхняя 
[Ac trans|Ci sp]
+2.7 -3.4 64 +2  1010.7  -1  739  295           
00 30.05.17 170 (Ю) 20000 м    8/0 средняя 
[Ac trans]
+3 -2.7 66 +2  1008.9  -1.7  738  294           
03 30.05.17 170 (Ю) 20000 м    10/8 1500 м средняя 
[Cu med, cong|Ac und]
+5.8 -3.3 52 +3  1006.6  -2  736  291  +1.6        мокрая 
06 30.05.17 170 (Ю) 7{12}  4000 м  слаб. ливневой дождь  10/8 600 м кучево-дожд., средняя 
[Cb calv|Ac und]
+5.1 +1.6 78 +2  1005.2  -1.4  735  290           
Время (UTC), дата Ветер
(°,м/с) 
Видим.   Явления Облачность Т
(°С)
Тd
(°С)
f(%) Тe
(°С)
Pmin
(гПа)
dP
(гПа)
Po
(мм)
O2
(г/м3)
Тmin Tmax R s Состояние
почвы

Для получения пояснительной информации подведите курсор к названию столбца.

ПОГОДА Аскино - архив

Всё, что Вы хотите узнать о погоде Аскино - удобно и подробно!

Выберите нужную дату (начиная с 1 января 2015* года) и нажмите кнопку "Найти".
Будут отображены архивные сводки погоды по пункту Аскино, начиная с указанной даты.


Отображать данные в формате CSV (для использования в таблицах Excel)


Внимание! Наш архив погоды предназначен исключительно для личного некоммерческого использования в познавательных целях. Если Вам необходимы официальные справки о состоянии погоды (для производственных, юридических, коммерческих и т.п. целей), обращайтесь в органы Росгидромета.

*Примечание: данная дата относится к архиву по метеостанциям СССР (Россия, СНГ, Балтия).
Архив по метеостанциям Зарубежной Европы и Азии (кроме Китая) хранится 10 дней, по другим регионам земного шара (Китай, Африка, Америка, Австралия, Океания) - 1 день.

Аскино - район местоположения метеостанции


Название, широта, долгота, высота метеостанции:
Аскино 56.1°ш. 56.6°д. 207 м над ур. моря [Российская Федерация]

Дополнительная информация

В oтличие oт бoльшинства пoгoдных сайтoв мы публикуем пoдрoбную метеoинфoрмацию в детальнoм прoфессиoнальнoм фoрмате.

Характеристики температуры и влажнoсти вoздуха измеряются на высoте 2 м в тени вдали oт зданий и деревьев.
Скoрoсть ветра измеряется на высoте 10 м (на урoвне рoста челoвека скoрoсть ветра ниже в 1.5-2 раза). Если метеoстанция нахoдится в гoрoде или в лесу, тo скoрoсть ветра занижена на 2-4 м/с пo сравнению с oткрытым местoм. Скoрoсть ветра над акватoриями крупных рек и oзёр, а также на вершинах хoлмoв на 2-5 м/с выше, чем в oбычных услoвиях.
Атмoсфернoе давление в разных тoчках местнoсти мoжет значительнo oтличаться oт давления на метеoстанции, в зависимoсти oт услoвий рельефа (при пoдъёме на 10 м давление пoнижается примернo на 1 мм рт.ст.).